• In Romania
  • List of Countries
  • For 7 days
  • Water Temperature
  • Satellite Maps
  • Weather Map
  • Weather Widgets
  • user-avatar
    Login

    Hourly Weather Lubango

    Today, 25 July, Tuesday

    Time Temperature Precipitation Wind Pressure Humidity
    00:00 +12°C° 0 mm 1 mps 610 mmHg 45%
    01:00 +12°C° 0 mm 1 mps 610 mmHg 44%
    02:00 +11°C° 0 mm 1 mps 610 mmHg 44%
    03:00 +11°C° 0 mm 1 mps 610 mmHg 44%
    04:00 +11°C° 0 mm 1 mps 609 mmHg 44%
    05:00 +11°C° 0 mm 1 mps 609 mmHg 42%
    06:00 +11°C° 0 mm 1 mps 610 mmHg 39%
    07:00 +12°C° 0 mm 1 mps 610 mmHg 34%
    08:00 +15°C° 0 mm 2 mps 612 mmHg 28%
    09:00 +19°C° 0 mm 2 mps 613 mmHg 23%
    10:00 +22°C° 0 mm 3 mps 615 mmHg 17%
    11:00 +25°C° 0 mm 2 mps 615 mmHg 16%
    12:00 +26°C° 0 mm 2 mps 615 mmHg 15%
    13:00 +27°C° 0 mm 2 mps 614 mmHg 13%
    14:00 +27°C° 0 mm 2 mps 614 mmHg 14%
    15:00 +26°C° 0 mm 2 mps 613 mmHg 15%
    16:00 +26°C° 0 mm 2 mps 613 mmHg 16%
    17:00 +21°C° 0 mm 2 mps 612 mmHg 24%
    18:00 +19°C° 0 mm 1 mps 610 mmHg 33%
    19:00 +15°C° 0 mm 1 mps 609 mmHg 42%
    20:00 +14°C° 0 mm 1 mps 609 mmHg 44%
    21:00 +13°C° 0 mm 1 mps 610 mmHg 47%
    22:00 +12°C° 0 mm 1 mps 610 mmHg 50%
    23:00 +12°C° 0 mm 1 mps 610 mmHg 48%

    Tomorrow, 26 July, Wednesday

    Time Temperature Precipitation Wind Pressure Humidity
    00:00 +12°C° 0 mm 1 mps 609 mmHg 46%
    01:00 +12°C° 0 mm 1 mps 609 mmHg 44%
    02:00 +11°C° 0 mm 1 mps 609 mmHg 42%
    03:00 +11°C° 0 mm 1 mps 609 mmHg 40%
    04:00 +11°C° 0 mm 1 mps 608 mmHg 39%
    05:00 +11°C° 0 mm 1 mps 608 mmHg 37%
    06:00 +11°C° 0 mm 1 mps 608 mmHg 35%
    07:00 +11°C° 0 mm 1 mps 609 mmHg 33%
    08:00 +15°C° 0 mm 2 mps 610 mmHg 26%
    09:00 +19°C° 0 mm 3 mps 612 mmHg 20%
    10:00 +24°C° 0 mm 3 mps 614 mmHg 14%
    11:00 +25°C° 0 mm 3 mps 614 mmHg 13%
    12:00 +26°C° 0 mm 3 mps 614 mmHg 12%
    13:00 +28°C° 0 mm 3 mps 614 mmHg 11%
    14:00 +27°C° 0 mm 2 mps 613 mmHg 12%
    15:00 +27°C° 0 mm 2 mps 613 mmHg 13%
    16:00 +26°C° 0 mm 2 mps 612 mmHg 14%
    17:00 +23°C° 0 mm 2 mps 611 mmHg 22%
    18:00 +20°C° 0 mm 1 mps 610 mmHg 29%
    19:00 +15°C° 0 mm 1 mps 609 mmHg 37%
    20:00 +14°C° 0 mm 1 mps 609 mmHg 41%
    21:00 +13°C° 0 mm 1 mps 609 mmHg 44%
    22:00 +12°C° 0 mm 1 mps 609 mmHg 47%
    23:00 +12°C° 0 mm 1 mps 609 mmHg 45%

    Day after tomorrow, 27 July, Thursday

    Time Temperature Precipitation Wind Pressure Humidity
    00:00 +12°C° 0 mm 1 mps 609 mmHg 43%
    01:00 +12°C° 0 mm 1 mps 609 mmHg 41%
    02:00 +12°C° 0 mm 1 mps 609 mmHg 39%
    03:00 +12°C° 0 mm 1 mps 608 mmHg 37%
    04:00 +11°C° 0 mm 1 mps 608 mmHg 35%
    05:00 +10°C° 0 mm 2 mps 608 mmHg 33%
    06:00 +10°C° 0 mm 2 mps 608 mmHg 31%
    07:00 +10°C° 0 mm 2 mps 609 mmHg 29%
    08:00 +14°C° 0 mm 3 mps 610 mmHg 24%
    09:00 +19°C° 0 mm 3 mps 612 mmHg 19%
    10:00 +23°C° 0 mm 4 mps 614 mmHg 14%
    11:00 +25°C° 0 mm 4 mps 614 mmHg 12%
    12:00 +27°C° 0 mm 3 mps 614 mmHg 11%
    13:00 +28°C° 0 mm 3 mps 614 mmHg 10%
    14:00 +28°C° 0 mm 3 mps 613 mmHg 10%
    15:00 +28°C° 0 mm 2 mps 613 mmHg 11%
    16:00 +28°C° 0 mm 2 mps 612 mmHg 12%
    17:00 +24°C° 0 mm 2 mps 611 mmHg 19%
    18:00 +21°C° 0 mm 1 mps 610 mmHg 26%
    19:00 +16°C° 0 mm 1 mps 609 mmHg 33%
    20:00 +15°C° 0 mm 1 mps 609 mmHg 36%
    21:00 +14°C° 0 mm 1 mps 610 mmHg 39%
    22:00 +13°C° 0 mm 1 mps 610 mmHg 43%
    23:00 +13°C° 0 mm 1 mps 610 mmHg 42%

    28 July, Friday

    Time Temperature Precipitation Wind Pressure Humidity
    00:00 +13°C° 0 mm 1 mps 609 mmHg 42%
    01:00 +13°C° 0 mm 1 mps 609 mmHg 41%
    02:00 +12°C° 0 mm 1 mps 609 mmHg 40%
    03:00 +12°C° 0 mm 1 mps 609 mmHg 39%
    04:00 +12°C° 0 mm 1 mps 608 mmHg 38%
    05:00 +12°C° 0 mm 1 mps 609 mmHg 35%
    06:00 +12°C° 0 mm 2 mps 609 mmHg 33%
    07:00 +12°C° 0 mm 2 mps 609 mmHg 31%
    08:00 +16°C° 0 mm 3 mps 611 mmHg 25%
    09:00 +19°C° 0 mm 3 mps 612 mmHg 20%
    10:00 +23°C° 0 mm 4 mps 614 mmHg 14%
    11:00 +26°C° 0 mm 4 mps 614 mmHg 13%
    12:00 +27°C° 0 mm 4 mps 614 mmHg 12%
    13:00 +29°C° 0 mm 3 mps 614 mmHg 11%
    14:00 +29°C° 0 mm 3 mps 613 mmHg 11%
    15:00 +28°C° 0 mm 3 mps 613 mmHg 11%
    16:00 +28°C° 0 mm 3 mps 612 mmHg 11%
    17:00 +25°C° 0 mm 2 mps 611 mmHg 16%
    18:00 +21°C° 0 mm 2 mps 611 mmHg 21%
    19:00 +18°C° 0 mm 1 mps 610 mmHg 26%
    20:00 +16°C° 0 mm 1 mps 610 mmHg 28%
    21:00 +15°C° 0 mm 1 mps 610 mmHg 30%
    22:00 +14°C° 0 mm 1 mps 610 mmHg 33%
    23:00 +14°C° 0 mm 1 mps 610 mmHg 31%

    29 July, Saturday

    Time Temperature Precipitation Wind Pressure Humidity
    00:00 +14°C° 0 mm 1 mps 610 mmHg 29%
    01:00 +13°C° 0 mm 1 mps 609 mmHg 27%
    02:00 +13°C° 0 mm 2 mps 609 mmHg 27%
    03:00 +13°C° 0 mm 2 mps 609 mmHg 27%
    04:00 +12°C° 0 mm 2 mps 609 mmHg 27%
    05:00 +13°C° 0 mm 2 mps 609 mmHg 28%
    06:00 +13°C° 0 mm 2 mps 609 mmHg 29%
    07:00 +12°C° 0 mm 3 mps 610 mmHg 30%
    08:00 +16°C° 0 mm 3 mps 611 mmHg 26%
    09:00 +20°C° 0 mm 4 mps 613 mmHg 21%
    10:00 +23°C° 0 mm 4 mps 614 mmHg 17%
    11:00 +26°C° 0 mm 4 mps 614 mmHg 15%
    12:00 +27°C° 0 mm 3 mps 614 mmHg 13%
    13:00 +29°C° 0 mm 3 mps 614 mmHg 11%
    14:00 +28°C° 0 mm 3 mps 613 mmHg 11%
    15:00 +28°C° 0 mm 3 mps 613 mmHg 11%
    16:00 +28°C° 0 mm 3 mps 613 mmHg 11%
    17:00 +25°C° 0 mm 2 mps 612 mmHg 16%
    18:00 +20°C° 0 mm 2 mps 611 mmHg 20%
    19:00 +17°C° 0 mm 2 mps 610 mmHg 25%
    20:00 +16°C° 0 mm 1 mps 610 mmHg 28%
    21:00 +15°C° 0 mm 1 mps 610 mmHg 30%
    22:00 +14°C° 0 mm 1 mps 610 mmHg 33%
    23:00 +14°C° 0 mm 2 mps 610 mmHg 31%

    30 July, Sunday

    Time Temperature Precipitation Wind Pressure Humidity
    00:00 +13°C° 0 mm 2 mps 610 mmHg 29%
    01:00 +13°C° 0 mm 2 mps 610 mmHg 27%
    02:00 +13°C° 0 mm 2 mps 609 mmHg 27%
    03:00 +12°C° 0 mm 2 mps 609 mmHg 26%
    04:00 +12°C° 0 mm 2 mps 609 mmHg 26%
    05:00 +12°C° 0 mm 2 mps 609 mmHg 28%
    06:00 +12°C° 0 mm 2 mps 610 mmHg 29%
    07:00 +12°C° 0 mm 2 mps 610 mmHg 31%
    08:00 +16°C° 0 mm 3 mps 611 mmHg 26%
    09:00 +19°C° 0 mm 3 mps 613 mmHg 22%
    10:00 +23°C° 0 mm 4 mps 614 mmHg 17%
    11:00 +25°C° 0 mm 3 mps 614 mmHg 15%
    12:00 +27°C° 0 mm 3 mps 614 mmHg 13%
    13:00 +28°C° 0 mm 2 mps 614 mmHg 12%
    14:00 +28°C° 0 mm 2 mps 613 mmHg 12%
    15:00 +28°C° 0 mm 2 mps 613 mmHg 12%
    16:00 +28°C° 0 mm 2 mps 612 mmHg 12%
    17:00 +25°C° 0 mm 2 mps 611 mmHg 17%
    18:00 +20°C° 0 mm 2 mps 611 mmHg 23%
    19:00 +18°C° 0 mm 1 mps 610 mmHg 28%
    20:00 +16°C° 0 mm 1 mps 610 mmHg 32%
    21:00 +15°C° 0 mm 1 mps 610 mmHg 36%
    22:00 +14°C° 0 mm 1 mps 610 mmHg 39%
    23:00 +13°C° 0 mm 1 mps 609 mmHg 39%
    Show more